• In Hungary
  • List of Countries
  • For 7 days
  • Water Temperature
  • Satellite Maps
  • Weather Map
  • News
  • Weather Widgets
  • user-avatar
    Login

    Hourly Weather Karbinci

    Today, 18 January, Thursday

    Time Temperature Precipitation Wind Pressure Humidity
    00:00 +1°C° 0.3 mm 6 mps 713 mmHg 74%
    01:00 -1°C° 0.3 mm 6 mps 714 mmHg 75%
    02:00 -1°C° 0 mm 6 mps 715 mmHg 74%
    03:00 -2°C° 0 mm 6 mps 715 mmHg 73%
    04:00 -2°C° 0 mm 6 mps 716 mmHg 72%
    05:00 -3°C° 0 mm 6 mps 717 mmHg 70%
    06:00 -3°C° 0 mm 6 mps 718 mmHg 69%
    07:00 -3°C° 0 mm 6 mps 719 mmHg 68%
    08:00 -2°C° 0 mm 7 mps 720 mmHg 65%
    09:00 -1°C° 0 mm 8 mps 721 mmHg 61%
    10:00 -1°C° 0 mm 9 mps 722 mmHg 58%
    11:00 0°C° 0 mm 9 mps 722 mmHg 55%
    12:00 +1°C° 0 mm 9 mps 723 mmHg 53%
    13:00 +1°C° 0 mm 9 mps 723 mmHg 50%
    14:00 +2°C° 0 mm 7 mps 724 mmHg 52%
    15:00 +1°C° 0 mm 5 mps 724 mmHg 54%
    16:00 +1°C° 0 mm 4 mps 724 mmHg 57%
    17:00 +1°C° 0 mm 3 mps 725 mmHg 60%
    18:00 +1°C° 0 mm 2 mps 725 mmHg 62%
    19:00 +1°C° 0 mm 2 mps 726 mmHg 65%
    20:00 +1°C° 0 mm 2 mps 725 mmHg 65%
    21:00 +2°C° 0 mm 1 mps 725 mmHg 64%
    22:00 +1°C° 0 mm 1 mps 725 mmHg 64%
    23:00 +2°C° 0 mm 1 mps 725 mmHg 62%

    Tomorrow, 19 January, Friday

    Time Temperature Precipitation Wind Pressure Humidity
    00:00 +2°C° 0 mm 1 mps 725 mmHg 61%
    01:00 +2°C° 0 mm 1 mps 725 mmHg 60%
    02:00 +2°C° 0 mm 1 mps 725 mmHg 59%
    03:00 +2°C° 0 mm 1 mps 724 mmHg 58%
    04:00 +2°C° 0 mm 1 mps 724 mmHg 57%
    05:00 +2°C° 0 mm 1 mps 724 mmHg 57%
    06:00 +2°C° 0 mm 1 mps 724 mmHg 56%
    07:00 +2°C° 0 mm 1 mps 724 mmHg 56%
    08:00 +4°C° 0 mm 1 mps 724 mmHg 51%
    09:00 +6°C° 0 mm 1 mps 724 mmHg 47%
    10:00 +8°C° 0 mm 1 mps 724 mmHg 42%
    11:00 +9°C° 0 mm 1 mps 724 mmHg 41%
    12:00 +9°C° 0 mm 1 mps 724 mmHg 40%
    13:00 +10°C° 0 mm 1 mps 723 mmHg 39%
    14:00 +9°C° 0 mm 1 mps 723 mmHg 44%
    15:00 +8°C° 0 mm 1 mps 723 mmHg 48%
    16:00 +7°C° 0 mm 1 mps 723 mmHg 53%
    17:00 +6°C° 0 mm 1 mps 723 mmHg 56%
    18:00 +6°C° 0 mm 1 mps 723 mmHg 59%
    19:00 +5°C° 0 mm 1 mps 723 mmHg 61%
    20:00 +4°C° 0 mm 2 mps 723 mmHg 63%
    21:00 +4°C° 0 mm 2 mps 723 mmHg 65%
    22:00 +4°C° 0 mm 2 mps 723 mmHg 66%
    23:00 +3°C° 0 mm 2 mps 723 mmHg 68%

    Day after tomorrow, 20 January, Saturday

    Time Temperature Precipitation Wind Pressure Humidity
    00:00 +3°C° 0 mm 2 mps 723 mmHg 69%
    01:00 +3°C° 0 mm 2 mps 723 mmHg 70%
    02:00 +3°C° 0 mm 2 mps 722 mmHg 71%
    03:00 +3°C° 0 mm 2 mps 722 mmHg 72%
    04:00 +3°C° 0 mm 2 mps 722 mmHg 73%
    05:00 +3°C° 0 mm 2 mps 722 mmHg 74%
    06:00 +3°C° 0 mm 2 mps 723 mmHg 75%
    07:00 +3°C° 0 mm 2 mps 723 mmHg 76%
    08:00 +6°C° 0 mm 1 mps 723 mmHg 72%
    09:00 +7°C° 0 mm 1 mps 723 mmHg 67%
    10:00 +9°C° 0 mm 1 mps 723 mmHg 63%
    11:00 +9°C° 0 mm 2 mps 723 mmHg 61%
    12:00 +10°C° 0 mm 2 mps 722 mmHg 60%
    13:00 +12°C° 0 mm 2 mps 722 mmHg 58%
    14:00 +10°C° 0 mm 2 mps 721 mmHg 62%
    15:00 +9°C° 0 mm 2 mps 721 mmHg 66%
    16:00 +8°C° 0 mm 2 mps 720 mmHg 70%
    17:00 +8°C° 0 mm 2 mps 720 mmHg 73%
    18:00 +7°C° 0 mm 2 mps 720 mmHg 77%
    19:00 +5°C° 0 mm 3 mps 720 mmHg 80%
    20:00 +6°C° 0.3 mm 2 mps 720 mmHg 83%
    21:00 +6°C° 0.3 mm 2 mps 720 mmHg 86%
    22:00 +6°C° 0.3 mm 2 mps 720 mmHg 89%
    23:00 +5°C° 0.1 mm 2 mps 720 mmHg 90%

    21 January, Sunday

    Time Temperature Precipitation Wind Pressure Humidity
    00:00 +5°C° 0.1 mm 2 mps 720 mmHg 91%
    01:00 +5°C° 0.1 mm 2 mps 721 mmHg 92%
    02:00 +6°C° 0 mm 1 mps 721 mmHg 91%
    03:00 +5°C° 0 mm 1 mps 721 mmHg 91%
    04:00 +5°C° 0 mm 1 mps 721 mmHg 91%
    05:00 +5°C° 0 mm 1 mps 721 mmHg 89%
    06:00 +5°C° 0 mm 1 mps 721 mmHg 88%
    07:00 +4°C° 0 mm 0 mps 721 mmHg 87%
    08:00 +6°C° 0 mm 1 mps 721 mmHg 82%
    09:00 +7°C° 0 mm 1 mps 721 mmHg 77%
    10:00 +8°C° 0 mm 1 mps 720 mmHg 72%
    11:00 +8°C° 0.1 mm 1 mps 720 mmHg 68%
    12:00 +8°C° 0.1 mm 1 mps 720 mmHg 64%
    13:00 +9°C° 0.1 mm 1 mps 719 mmHg 61%
    14:00 +8°C° 0.3 mm 1 mps 719 mmHg 65%
    15:00 +8°C° 0.3 mm 1 mps 719 mmHg 69%
    16:00 +7°C° 0.3 mm 1 mps 719 mmHg 73%
    17:00 +5°C° 0.3 mm 2 mps 719 mmHg 75%
    18:00 +4°C° 0.3 mm 3 mps 720 mmHg 78%
    19:00 +3°C° 0.3 mm 4 mps 720 mmHg 80%
    20:00 +3°C° 0.1 mm 4 mps 721 mmHg 79%
    21:00 +1°C° 0.1 mm 5 mps 721 mmHg 79%
    22:00 +1°C° 0.1 mm 5 mps 722 mmHg 78%
    23:00 0°C° 0.1 mm 5 mps 722 mmHg 78%

    22 January, Monday

    Time Temperature Precipitation Wind Pressure Humidity
    00:00 0°C° 0.1 mm 5 mps 722 mmHg 78%
    01:00 -1°C° 0.1 mm 5 mps 723 mmHg 78%
    02:00 -2°C° 0 mm 4 mps 723 mmHg 78%
    03:00 -2°C° 0 mm 4 mps 723 mmHg 78%
    04:00 -3°C° 0 mm 4 mps 723 mmHg 78%
    05:00 -3°C° 0 mm 4 mps 724 mmHg 77%
    06:00 -3°C° 0 mm 4 mps 725 mmHg 76%
    07:00 -4°C° 0 mm 4 mps 725 mmHg 75%
    08:00 -3°C° 0 mm 4 mps 725 mmHg 70%
    09:00 -2°C° 0 mm 5 mps 726 mmHg 64%
    10:00 -1°C° 0 mm 5 mps 726 mmHg 59%
    11:00 -1°C° 0 mm 5 mps 726 mmHg 58%
    12:00 0°C° 0 mm 5 mps 726 mmHg 57%
    13:00 0°C° 0 mm 5 mps 727 mmHg 55%
    14:00 0°C° 0 mm 5 mps 727 mmHg 58%
    15:00 -1°C° 0 mm 5 mps 728 mmHg 60%
    16:00 -1°C° 0 mm 4 mps 728 mmHg 63%
    17:00 -2°C° 0 mm 4 mps 729 mmHg 67%
    18:00 -2°C° 0 mm 3 mps 730 mmHg 70%
    19:00 -4°C° 0 mm 3 mps 731 mmHg 74%
    20:00 -4°C° 0 mm 3 mps 731 mmHg 75%
    21:00 -3°C° 0 mm 2 mps 732 mmHg 75%
    22:00 -3°C° 0 mm 2 mps 732 mmHg 76%
    23:00 -3°C° 0 mm 2 mps 732 mmHg 76%

    23 January, Tuesday

    Time Temperature Precipitation Wind Pressure Humidity
    00:00 -4°C° 0 mm 2 mps 732 mmHg 77%
    01:00 -4°C° 0 mm 2 mps 733 mmHg 77%
    02:00 -4°C° 0 mm 2 mps 733 mmHg 77%
    03:00 -4°C° 0 mm 2 mps 733 mmHg 77%
    04:00 -4°C° 0 mm 2 mps 733 mmHg 77%
    05:00 -4°C° 0 mm 2 mps 733 mmHg 77%
    06:00 -4°C° 0 mm 2 mps 734 mmHg 76%
    07:00 -2°C° 0 mm 1 mps 734 mmHg 75%
    08:00 -3°C° 0 mm 2 mps 734 mmHg 67%
    09:00 -1°C° 0 mm 2 mps 734 mmHg 59%
    10:00 +1°C° 0 mm 2 mps 734 mmHg 51%
    11:00 +2°C° 0 mm 2 mps 734 mmHg 47%
    12:00 +3°C° 0 mm 2 mps 734 mmHg 42%
    13:00 +4°C° 0 mm 2 mps 733 mmHg 38%
    14:00 +3°C° 0 mm 2 mps 733 mmHg 42%
    15:00 +3°C° 0 mm 2 mps 733 mmHg 45%
    16:00 +3°C° 0 mm 1 mps 733 mmHg 48%
    17:00 +2°C° 0 mm 1 mps 734 mmHg 50%
    18:00 +1°C° 0 mm 1 mps 734 mmHg 52%
    19:00 +1°C° 0 mm 1 mps 734 mmHg 53%
    20:00 +1°C° 0 mm 1 mps 734 mmHg 52%
    21:00 +1°C° 0 mm 1 mps 734 mmHg 51%
    22:00 +1°C° 0 mm 1 mps 734 mmHg 49%
    23:00 +1°C° 0 mm 1 mps 734 mmHg 49%
    Show more